Location: Earls Croome
(52.0667°N, 2.2000°W)
Time: 18:52:17
(UTC+00:00)

Cosmos 1437 - Pass Details

Date: 17 November 2019
Orbit: 380 x 384 km, 81.2° (Epoch: 06 December)

Event Time Altitude Azimuth Distance (km) Brightness Sun altitude
Rises 05:58:32 0° 186° (S) 2,250 6.5 -14.1°
Reaches altitude 10° 06:00:31 10° 183° (S) 1,403 5.5 -13.8°
Maximum altitude 06:03:32 68° 101° (E) 419 2.9 -13.3°
Drops below altitude 10° 06:06:36 10° 17° (NNE) 1,419 5.5 -12.9°
Sets 06:08:37 0° 15° (NNE) 2,280 6.5 -12.6°
